Regional Weather Roundup
Issued by NWS Kansas City/Pleasant Hill, MO

Home | Current Version | Previous Version | Text Only | Print | Product List | Glossary On
Versions: 1 2 3 4 5 6 7 8 9 10 11 12 13 14 15 16 17 18 19 20 21 22 23 24 25 26 27 28 29 30 31 32 33 34 35 36 37 38 39 40 41 42 43 44 45 46 47 48 49 50
000
ASUS43 KEAX 311011
RWREAX

WEATHER ROUNDUP FOR EASTERN KANSAS AND NORTHWEST MISSOURI
NATIONAL WEATHER SERVICE KANSAS CITY/PLEASANT HILL MO
500 AM CDT SUN AUG 31 2014

KSZ040-057-103>105-MOZ028-029-037-043-311100-
...KANSAS CITY METROPOLITAN AREA...

CITY           SKY/WX    TMP DP  RH WIND       PRES   REMARKS
K.C. INTL      CLEAR     69  66  90 S9        29.88S
K.C. DOWNTOWN  CLEAR     74  67  78 S7        29.88S
LEES SUMMIT    CLEAR     72  68  87 S7        29.90S
OLATHE - IXD   CLEAR     68  66  93 S6        29.89F
OLATHE - OJC   CLEAR     69  67  93 S7        29.89S
LAWRENCE       CLEAR     69  64  84 CALM      29.88R

$$

MOZ001>008-011>017-020>025-030>033-038>040-044>046-053-054-311100-
...NORTHERN AND CENTRAL MISSOURI...

CITY           SKY/WX    TMP DP  RH WIND       PRES   REMARKS
ST. JOSEPH     CLEAR     67  65  93 SE7       29.86F
MOSBY          SUNNY     68  66  94 CALM      29.88F
WHITEMAN AFB   CLEAR     67  65  95 S7        29.91S
CLINTON        CLEAR     70  68  94 S3        29.92S
SEDALIA        CLEAR     69  66  90 S7        29.93S
WARSAW         NOT AVBL
MARSHALL       CLEAR     70  70 100 S5        29.92S
CHILLICOTHE      N/A     66  64  93 CALM      29.90F
MOBERLY        CLEAR     70  64  83 SW3       29.93R
KIRKSVILLE     FOG       64  63  96 SE3       29.92S VSB 1/2

$$

MOZ041-047>049-056>058-063>065-088>090-097-311100-
...EASTERN AND SOUTHERN MISSOURI...

CITY           SKY/WX    TMP DP  RH WIND       PRES   REMARKS
ST. LOUIS INTL PTCLDY    74  70  87 S3        29.95R
SPIRIT OF STL  CLEAR     71  69  93 CALM      29.93S
COLUMBIA       CLEAR     67  67 100 S6        29.94R
JEFFERSON CITY CLEAR     68  67  96 E3        29.93S
MEXICO         CLEAR    N/A N/A N/A S3        29.93S HAZE
HANNIBAL       CLEAR     70  66  88 S6        29.93R
ROLLA          CLEAR     70  69  97 S8        29.95S
LEBANON        CLEAR     70  68  94 S3        29.97S
OSAGE BEACH    CLEAR     68  64  88 SE3       29.94S
SPRINGFIELD    CLEAR     70  68  93 S8        29.96R
BRANSON        CLEAR     68  66  94 CALM      29.99R
NEVADA         CLEAR     68  66  94 S6        29.93S
JOPLIN         CLEAR     72  69  90 S10       29.94R
WEST PLAINS    CLEAR     70  68  93 CALM      30.00S

$$

IAZ060-094-KSZ022-034>040-054-083-096-NEZ052-066-093-311100-
...KANSAS...SOUTHEAST NEBRASKA AND IOWA...

CITY           SKY/WX    TMP DP  RH WIND       PRES   REMARKS
TOPEKA         CLEAR     70  65  84 SE5       29.86S
MANHATTAN      CLEAR     66  62  87 CALM      29.83F
EMPORIA        CLEAR     69  66  90 S12       29.88S
CHANUTE        CLEAR     72  69  90 S9        29.91R
WICHITA        PTCLDY    71  66  84 S9        29.86S
OMAHA          CLEAR     71  65  81 S13       29.81F
LINCOLN        CLEAR     68  63  84 S8        29.81F
FALLS CITY     CLEAR     67  65  93 SE5       29.83F
LAMONI         CLEAR     67  65  93 S7        29.89S
DES MOINES     PTCLDY    69  64  84 SE8       29.86F

$$



USA.gov is the U.S. government's official web portal to all federal, state and local government web resources and services.